• In Schweiz
  • Länderverzeichnis
  • Für 7 Tage
  • Wassertemperatur
  • Satellitenkarten
  • Wetterkarte
  • Widgets
  • user-avatar
    Anmelden

    Stündliche Wetter Juigalpa

    Heute, 20 Juli, Freitag

    Zeit Temperatur Niederschläge Wind Luftdruck Luftfeuchtigkeit
    00:00 +26°C° 0 mm 5 m/S 752 mmHg 88%
    01:00 +26°C° 0 mm 5 m/S 751 mmHg 89%
    02:00 +26°C° 0 mm 5 m/S 751 mmHg 89%
    03:00 +26°C° 0 mm 5 m/S 751 mmHg 89%
    04:00 +26°C° 0 mm 5 m/S 751 mmHg 89%
    05:00 +26°C° 0 mm 5 m/S 751 mmHg 89%
    06:00 +26°C° 0 mm 5 m/S 751 mmHg 89%
    07:00 +27°C° 0 mm 6 m/S 751 mmHg 84%
    08:00 +28°C° 0 mm 7 m/S 751 mmHg 79%
    09:00 +31°C° 0 mm 8 m/S 752 mmHg 74%
    10:00 +32°C° 0,1 mm 8 m/S 751 mmHg 71%
    11:00 +33°C° 0,1 mm 8 m/S 751 mmHg 67%
    12:00 +34°C° 0,1 mm 8 m/S 751 mmHg 64%
    13:00 +33°C° 0,4 mm 7 m/S 750 mmHg 65%
    14:00 +33°C° 0,4 mm 7 m/S 750 mmHg 65%
    15:00 +33°C° 0,4 mm 7 m/S 750 mmHg 66%
    16:00 +32°C° 0,5 mm 6 m/S 750 mmHg 71%
    17:00 +30°C° 0,5 mm 5 m/S 750 mmHg 76%
    18:00 +28°C° 0,5 mm 5 m/S 750 mmHg 81%
    19:00 +28°C° 0,2 mm 4 m/S 750 mmHg 82%
    20:00 +27°C° 0,2 mm 4 m/S 751 mmHg 83%
    21:00 +27°C° 0,2 mm 4 m/S 751 mmHg 84%
    22:00 +27°C° 0,2 mm 4 m/S 751 mmHg 85%
    23:00 +27°C° 0,2 mm 5 m/S 751 mmHg 86%

    Morgen, 21 Juli, Samstag

    Zeit Temperatur Niederschläge Wind Luftdruck Luftfeuchtigkeit
    00:00 +26°C° 0,2 mm 5 m/S 751 mmHg 87%
    01:00 +26°C° 0,1 mm 5 m/S 751 mmHg 87%
    02:00 +26°C° 0,1 mm 5 m/S 750 mmHg 88%
    03:00 +26°C° 0,1 mm 5 m/S 750 mmHg 88%
    04:00 +26°C° 0,3 mm 5 m/S 750 mmHg 88%
    05:00 +26°C° 0,3 mm 5 m/S 750 mmHg 88%
    06:00 +26°C° 0,3 mm 5 m/S 750 mmHg 89%
    07:00 +27°C° 0,3 mm 5 m/S 751 mmHg 86%
    08:00 +28°C° 0,3 mm 6 m/S 751 mmHg 84%
    09:00 +29°C° 0,3 mm 6 m/S 751 mmHg 82%
    10:00 +29°C° 0,3 mm 7 m/S 751 mmHg 79%
    11:00 +30°C° 0,3 mm 7 m/S 750 mmHg 76%
    12:00 +32°C° 0,3 mm 7 m/S 750 mmHg 74%
    13:00 +32°C° 0,7 mm 7 m/S 750 mmHg 74%
    14:00 +32°C° 0,7 mm 7 m/S 750 mmHg 75%
    15:00 +32°C° 0,7 mm 7 m/S 749 mmHg 76%
    16:00 +30°C° 1 mm 6 m/S 749 mmHg 80%
    17:00 +29°C° 1 mm 6 m/S 750 mmHg 84%
    18:00 +27°C° 1 mm 5 m/S 750 mmHg 88%
    19:00 +27°C° 0,4 mm 5 m/S 750 mmHg 88%
    20:00 +27°C° 0,4 mm 5 m/S 751 mmHg 89%
    21:00 +26°C° 0,4 mm 4 m/S 751 mmHg 89%
    22:00 +26°C° 0,3 mm 4 m/S 751 mmHg 90%
    23:00 +26°C° 0,3 mm 4 m/S 751 mmHg 90%

    übermorgen, 22 Juli, Sonntag

    Zeit Temperatur Niederschläge Wind Luftdruck Luftfeuchtigkeit
    00:00 +26°C° 0,3 mm 4 m/S 751 mmHg 91%
    01:00 +26°C° 0,4 mm 4 m/S 751 mmHg 91%
    02:00 +26°C° 0,4 mm 4 m/S 750 mmHg 91%
    03:00 +26°C° 0,4 mm 4 m/S 750 mmHg 92%
    04:00 +26°C° 0,5 mm 4 m/S 750 mmHg 92%
    05:00 +26°C° 0,5 mm 4 m/S 750 mmHg 92%
    06:00 +26°C° 0,5 mm 4 m/S 750 mmHg 92%
    07:00 +27°C° 0,5 mm 5 m/S 751 mmHg 88%
    08:00 +28°C° 0,5 mm 6 m/S 751 mmHg 84%
    09:00 +29°C° 0,5 mm 7 m/S 752 mmHg 80%
    10:00 +29°C° 0,5 mm 7 m/S 751 mmHg 80%
    11:00 +29°C° 0,5 mm 7 m/S 751 mmHg 80%
    12:00 +30°C° 0,5 mm 7 m/S 751 mmHg 80%
    13:00 +29°C° 0,5 mm 7 m/S 750 mmHg 81%
    14:00 +29°C° 0,5 mm 6 m/S 750 mmHg 82%
    15:00 +29°C° 0,5 mm 6 m/S 749 mmHg 83%
    16:00 +28°C° 0,4 mm 6 m/S 750 mmHg 85%
    17:00 +28°C° 0,4 mm 5 m/S 750 mmHg 87%
    18:00 +27°C° 0,4 mm 5 m/S 750 mmHg 89%
    19:00 +27°C° 0,6 mm 4 m/S 751 mmHg 90%
    20:00 +27°C° 0,6 mm 4 m/S 751 mmHg 91%
    21:00 +26°C° 0,6 mm 4 m/S 752 mmHg 91%
    22:00 +26°C° 0,4 mm 4 m/S 752 mmHg 92%
    23:00 +26°C° 0,4 mm 4 m/S 752 mmHg 93%

    23 Juli, Montag

    Zeit Temperatur Niederschläge Wind Luftdruck Luftfeuchtigkeit
    00:00 +26°C° 0,4 mm 4 m/S 752 mmHg 93%
    01:00 +26°C° 0,5 mm 3 m/S 751 mmHg 94%
    02:00 +26°C° 0,5 mm 3 m/S 751 mmHg 94%
    03:00 +25°C° 0,5 mm 3 m/S 750 mmHg 94%
    04:00 +26°C° 0,2 mm 4 m/S 751 mmHg 94%
    05:00 +26°C° 0,2 mm 4 m/S 751 mmHg 94%
    06:00 +26°C° 0,2 mm 4 m/S 751 mmHg 93%
    07:00 +27°C° 0,2 mm 5 m/S 751 mmHg 89%
    08:00 +28°C° 0,2 mm 6 m/S 752 mmHg 85%
    09:00 +29°C° 0,2 mm 7 m/S 752 mmHg 81%
    10:00 +30°C° 0,3 mm 7 m/S 752 mmHg 79%
    11:00 +30°C° 0,3 mm 6 m/S 752 mmHg 76%
    12:00 +32°C° 0,3 mm 6 m/S 751 mmHg 73%
    13:00 +32°C° 0,5 mm 6 m/S 751 mmHg 74%
    14:00 +32°C° 0,5 mm 6 m/S 751 mmHg 75%
    15:00 +30°C° 0,5 mm 5 m/S 750 mmHg 76%
    16:00 +29°C° 0,5 mm 5 m/S 751 mmHg 80%
    17:00 +28°C° 0,5 mm 4 m/S 751 mmHg 84%
    18:00 +27°C° 0,5 mm 3 m/S 751 mmHg 88%
    19:00 +27°C° 0,1 mm 3 m/S 752 mmHg 89%
    20:00 +26°C° 0,1 mm 3 m/S 752 mmHg 91%
    21:00 +26°C° 0,1 mm 3 m/S 753 mmHg 92%
    22:00 +26°C° 0 mm 3 m/S 752 mmHg 92%
    23:00 +26°C° 0 mm 3 m/S 752 mmHg 93%

    24 Juli, Dienstag

    Zeit Temperatur Niederschläge Wind Luftdruck Luftfeuchtigkeit
    00:00 +25°C° 0 mm 3 m/S 752 mmHg 93%
    01:00 +25°C° 0,1 mm 3 m/S 752 mmHg 93%
    02:00 +25°C° 0,1 mm 3 m/S 752 mmHg 93%
    03:00 +25°C° 0,1 mm 3 m/S 751 mmHg 93%
    04:00 +25°C° 0,4 mm 3 m/S 752 mmHg 93%
    05:00 +25°C° 0,4 mm 3 m/S 752 mmHg 93%
    06:00 +25°C° 0,4 mm 3 m/S 752 mmHg 93%
    07:00 +26°C° 0,6 mm 3 m/S 753 mmHg 92%
    08:00 +26°C° 0,6 mm 3 m/S 753 mmHg 90%
    09:00 +27°C° 0,6 mm 3 m/S 754 mmHg 89%
    10:00 +27°C° 0,4 mm 3 m/S 753 mmHg 88%
    11:00 +28°C° 0,4 mm 3 m/S 753 mmHg 87%
    12:00 +28°C° 0,4 mm 3 m/S 753 mmHg 86%
    13:00 +28°C° 0 mm 3 m/S 752 mmHg 85%
    14:00 +28°C° 0 mm 3 m/S 752 mmHg 84%
    15:00 +28°C° 0 mm 3 m/S 751 mmHg 83%
    16:00 +27°C° 0 mm 3 m/S 751 mmHg 83%
    17:00 +27°C° 0 mm 3 m/S 751 mmHg 84%
    18:00 +27°C° 0 mm 3 m/S 752 mmHg 84%
    19:00 +27°C° 0,1 mm 3 m/S 752 mmHg 85%
    20:00 +26°C° 0,1 mm 3 m/S 753 mmHg 86%
    21:00 +26°C° 0,1 mm 3 m/S 753 mmHg 87%
    22:00 +26°C° 0 mm 3 m/S 753 mmHg 88%
    23:00 +26°C° 0 mm 3 m/S 753 mmHg 88%

    25 Juli, Mittwoch

    Zeit Temperatur Niederschläge Wind Luftdruck Luftfeuchtigkeit
    00:00 +26°C° 0 mm 3 m/S 752 mmHg 89%
    01:00 +25°C° 0 mm 3 m/S 752 mmHg 89%
    02:00 +25°C° 0 mm 3 m/S 752 mmHg 90%
    03:00 +25°C° 0 mm 3 m/S 751 mmHg 91%
    04:00 +25°C° 0 mm 2 m/S 752 mmHg 91%
    05:00 +25°C° 0 mm 2 m/S 752 mmHg 91%
    06:00 +25°C° 0 mm 2 m/S 752 mmHg 92%
    07:00 +27°C° 0 mm 3 m/S 752 mmHg 87%
    08:00 +28°C° 0 mm 3 m/S 753 mmHg 82%
    09:00 +29°C° 0 mm 3 m/S 753 mmHg 77%
    10:00 +30°C° 0,7 mm 3 m/S 753 mmHg 76%
    11:00 +31°C° 0,7 mm 3 m/S 752 mmHg 75%
    12:00 +31°C° 0,7 mm 3 m/S 752 mmHg 75%
    13:00 +31°C° 1,8 mm 3 m/S 751 mmHg 77%
    14:00 +30°C° 1,8 mm 3 m/S 751 mmHg 79%
    15:00 +30°C° 1,8 mm 3 m/S 750 mmHg 81%
    16:00 +29°C° 2,3 mm 3 m/S 750 mmHg 84%
    17:00 +28°C° 2,3 mm 3 m/S 751 mmHg 87%
    18:00 +27°C° 2,3 mm 3 m/S 751 mmHg 91%
    19:00 +27°C° 1,3 mm 3 m/S 752 mmHg 91%
    20:00 +27°C° 1,3 mm 3 m/S 752 mmHg 92%
    21:00 +26°C° 1,3 mm 3 m/S 753 mmHg 92%
    22:00 +26°C° 0,4 mm 3 m/S 753 mmHg 93%
    23:00 +26°C° 0,4 mm 3 m/S 752 mmHg 93%
    Mehr zeigen